EW5967 Weather Reports


time (UTC)temp
C
wind
direction
speed
KPH
gust
KPH
rain 1hr
cm
rain 24hr
cm
rain mn
cm
humidity
%
barometer
mb
20260502163111 22 70 0.0 8.0 0.00 0.00 0.00 14 1013.5
20260502162512 22 74 3.2 11.3 0.00 0.00 0.00 14 1013.5
20260502162014 22 83 4.8 12.9 0.00 0.00 0.00 14 1013.5
20260502161509 22 91 4.8 12.9 0.00 0.00 0.00 14 1013.4
20260502161009 22 101 0.0 12.9 0.00 0.00 0.00 14 1013.4
20260502160509 22 96 4.8 12.9 0.00 0.00 0.00 14 1013.4
20260502152003 22 342 0.0 3.2 0.00 0.00 0.00 16 1013.2
20260502151502 22 342 0.0 0.0 0.00 0.00 0.00 15 1013.1
20260502151002 22 342 0.0 0.0 0.00 0.00 0.00 16 1013.1
20260502150600 21 342 0.0 1.6 0.00 0.00 0.00 15 1013.0
20260502130544 17 342 0.0 1.6 0.00 0.00 0.00 17 1012.2
20260502123541 17 342 1.6 4.8 0.00 0.00 0.00 16 1011.8
20260502123041 17 342 1.6 4.8 0.00 0.00 0.00 16 1011.8
20260502122541 17 342 1.6 4.8 0.00 0.00 0.00 16 1011.9
20260502122040 17 342 1.6 4.8 0.00 0.00 0.00 16 1011.8
20260502121540 17 342 1.6 4.8 0.00 0.00 0.00 16 1011.7
20260502121042 17 342 1.6 4.8 0.00 0.00 0.00 16 1011.8
20260502120540 17 342 0.0 3.2 0.00 0.00 0.00 16 1011.8
20260502115542 17 342 0.0 3.2 0.00 0.00 0.00 15 1011.7
20260502115038 17 342 0.0 1.6 0.00 0.00 0.00 15 1011.8
20260502114538 17 342 0.0 4.8 0.00 0.00 0.00 15 1011.9
20260502114035 18 342 1.6 4.8 0.00 0.00 0.00 15 1011.9
20260502113536 18 342 0.0 3.2 0.00 0.00 0.00 15 1011.8
20260502113035 18 342 1.6 4.8 0.00 0.00 0.00 15 1011.7
20260502112535 18 342 1.6 4.8 0.00 0.00 0.00 15 1011.7
20260502112034 18 342 0.0 4.8 0.00 0.00 0.00 15 1011.8
20260502111602 18 342 0.0 4.8 0.00 0.00 0.00 15 1011.7
20260502111033 18 342 1.6 4.8 0.00 0.00 0.00 15 1011.7
20260502110533 18 342 0.0 6.4 0.00 0.00 0.00 15 1011.7
20260502110034 18 342 1.6 6.4 0.00 0.00 0.00 15 1011.8
20260502105536 18 343 1.6 4.8 0.00 0.00 0.00 15 1011.7
20260502105031 18 343 1.6 4.8 0.00 0.00 0.00 15 1011.7
20260502104540 18 343 1.6 3.2 0.00 0.00 0.00 15 1011.7
20260502104031 18 343 0.0 3.2 0.00 0.00 0.00 14 1011.7
20260502103531 18 343 0.0 3.2 0.00 0.00 0.00 14 1011.7
20260502103035 18 343 0.0 3.2 0.00 0.00 0.00 15 1011.7
20260502102531 18 343 0.0 4.8 0.00 0.00 0.00 14 1011.7
20260502102030 18 343 0.0 4.8 0.00 0.00 0.00 14 1011.6
20260502101531 18 343 0.0 3.2 0.00 0.00 0.00 14 1011.7
20260502101029 18 343 0.0 4.8 0.00 0.00 0.00 14 1011.7
20260502100528 18 343 1.6 6.4 0.00 0.00 0.00 14 1011.7
20260502091522 19 345 1.6 8.0 0.00 0.00 0.00 13 1011.9
20260502091022 19 355 1.6 4.8 0.00 0.00 0.00 13 1011.9
20260502090521 19 355 0.0 4.8 0.00 0.00 0.00 13 1011.9
20260502071507 20 10 0.0 1.6 0.00 0.00 0.00 12 1012.1
20260502071008 20 10 0.0 4.8 0.00 0.00 0.00 12 1012.0
20260502070507 20 10 0.0 4.8 0.00 0.00 0.00 12 1012.0
20260502070013 20 10 0.0 4.8 0.00 0.00 0.00 12 1012.0
20260502065506 20 10 0.0 6.4 0.00 0.00 0.00 12 1012.0
20260502065007 20 10 0.0 6.4 0.00 0.00 0.00 12 1012.0
20260502064515 20 10 0.0 9.7 0.00 0.00 0.00 12 1011.9
20260502064005 20 10 4.8 9.7 0.00 0.00 0.00 12 1011.9
20260502063504 20 348 0.0 6.4 0.00 0.00 0.00 12 1011.9
20260502063006 20 355 1.6 8.0 0.00 0.00 0.00 12 1011.9
20260502062503 20 355 3.2 8.0 0.00 0.00 0.00 12 1011.9
20260502062006 20 346 1.6 8.0 0.00 0.00 0.00 12 1011.8
20260502061502 21 319 0.0 8.0 0.00 0.00 0.00 12 1011.8
20260502061002 21 14 0.0 12.9 0.00 0.00 0.00 12 1011.7
20260502060502 21 14 3.2 16.1 0.00 0.00 0.00 12 1011.7
20260502060002 21 80 6.4 16.1 0.00 0.00 0.00 12 1011.6
20260502055502 21 26 1.6 12.9 0.00 0.00 0.00 12 1011.6
20260502055002 21 25 3.2 14.5 0.00 0.00 0.00 12 1011.5
20260502054501 21 22 3.2 9.7 0.00 0.00 0.00 12 1011.5
20260502054002 21 30 3.2 9.7 0.00 0.00 0.00 12 1011.5
20260502053500 21 22 3.2 12.9 0.00 0.00 0.00 12 1011.5
20260502053002 21 15 4.8 16.1 0.00 0.00 0.00 12 1011.5
20260502052502 21 42 9.7 16.1 0.00 0.00 0.00 12 1011.5
20260502052104 21 31 4.8 14.5 0.00 0.00 0.00 12 1011.4
20260502051604 21 321 0.0 6.4 0.00 0.00 0.00 12 1011.2
20260502051100 21 321 1.6 6.4 0.00 0.00 0.00 12 1011.1
20260502050603 21 317 1.6 6.4 0.00 0.00 0.00 12 1011.1
20260502050101 21 316 0.0 8.0 0.00 0.00 0.00 12 1011.1
20260502045559 22 315 1.6 8.0 0.00 0.00 0.00 12 1011.0
20260502045058 22 317 1.6 8.0 0.00 0.00 0.00 12 1011.0
20260502044558 22 318 1.6 8.0 0.00 0.00 0.00 12 1010.8
20260502044058 22 320 1.6 8.0 0.00 0.00 0.00 12 1010.8
20260502043559 22 320 0.0 8.0 0.00 0.00 0.00 12 1010.8
20260502043119 22 321 0.0 6.4 0.00 0.00 0.00 12 1010.7
20260502042558 22 321 3.2 8.0 0.00 0.00 0.00 11 1010.7
20260502042058 22 320 3.2 6.4 0.00 0.00 0.00 11 1010.6
20260502041558 22 322 0.0 6.4 0.00 0.00 0.00 12 1010.5
20260502041057 22 321 1.6 8.0 0.00 0.00 0.00 12 1010.5
20260502040557 22 335 3.2 8.0 0.00 0.00 0.00 12 1010.4
20260502040057 22 346 0.0 4.8 0.00 0.00 0.00 12 1010.4
20260502035557 22 346 1.6 6.4 0.00 0.00 0.00 12 1010.3
20260502035057 22 347 1.6 8.0 0.00 0.00 0.00 12 1010.1
20260502034556 22 5 0.0 8.0 0.00 0.00 0.00 12 1010.1
20260502034056 22 5 1.6 12.9 0.00 0.00 0.00 13 1010.1
20260502033555 22 5 1.6 12.9 0.00 0.00 0.00 13 1009.9
20260502033056 22 325 0.0 4.8 0.00 0.00 0.00 13 1009.9
20260502032555 22 325 0.0 4.8 0.00 0.00 0.00 12 1009.7
20260502032055 22 325 0.0 4.8 0.00 0.00 0.00 12 1009.6
20260502031557 22 325 1.6 6.4 0.00 0.00 0.00 12 1009.5
20260502031055 23 325 0.0 8.0 0.00 0.00 0.00 12 1009.4
20260502030555 23 325 1.6 8.0 0.00 0.00 0.00 12 1009.3
20260502030055 23 327 1.6 4.8 0.00 0.00 0.00 12 1009.3
20260502025554 23 327 0.0 6.4 0.00 0.00 0.00 12 1009.2
20260502025054 23 326 1.6 6.4 0.00 0.00 0.00 12 1009.2
20260502024554 23 330 0.0 8.0 0.00 0.00 0.00 12 1009.1
20260502024053 23 330 1.6 9.7 0.00 0.00 0.00 12 1009.0
20260502023555 23 331 3.2 9.7 0.00 0.00 0.00 12 1008.9
20260502023057 23 333 1.6 9.7 0.00 0.00 0.00 12 1008.9
20260502022554 23 337 1.6 8.0 0.00 0.00 0.00 12 1008.9
20260502022052 23 346 3.2 8.0 0.00 0.00 0.00 12 1008.9
20260502021553 23 360 3.2 9.7 0.00 0.00 0.00 12 1008.8
20260502021054 23 11 3.2 9.7 0.00 0.00 0.00 12 1008.8
20260502020553 23 336 1.6 9.7 0.00 0.00 0.00 12 1008.8
20260502020053 23 329 3.2 12.9 0.00 0.00 0.00 12 1008.8
20260502015552 24 350 4.8 12.9 0.00 0.00 0.00 12 1008.7
20260502015053 24 348 3.2 9.7 0.00 0.00 0.00 12 1008.7
20260502014557 24 321 1.6 9.7 0.00 0.00 0.00 12 1008.6
20260502014051 24 5 1.6 9.7 0.00 0.00 0.00 12 1008.6
20260502013555 25 351 3.2 14.5 0.00 0.00 0.00 12 1008.6
20260502013057 25 331 4.8 14.5 0.00 0.00 0.00 11 1008.6
20260502012551 25 9 3.2 16.1 0.00 0.00 0.00 11 1008.6
20260502012051 25 322 4.8 16.1 0.00 0.00 0.00 11 1008.6
20260502011605 25 5 4.8 12.9 0.00 0.00 0.00 11 1008.5
20260502011050 25 347 3.2 8.0 0.00 0.00 0.00 11 1008.5
20260502010550 25 31 4.8 14.5 0.00 0.00 0.00 11 1008.5
20260502010050 25 326 1.6 12.9 0.00 0.00 0.00 11 1008.6
20260502005550 25 15 6.4 17.7 0.00 0.00 0.00 11 1008.6
20260502005052 25 314 6.4 17.7 0.00 0.00 0.00 11 1008.5
20260502004600 25 298 3.2 17.7 0.00 0.00 0.00 11 1008.5
20260502004048 25 318 8.0 19.3 0.00 0.00 0.00 11 1008.5
20260502003548 25 57 6.4 19.3 0.00 0.00 0.00 11 1008.5
20260502003047 26 20 6.4 19.3 0.00 0.00 0.00 11 1008.5
20260502002547 26 332 6.4 20.9 0.00 0.00 0.00 11 1008.5
20260502002147 26 355 8.0 19.3 0.00 0.00 0.00 11 1008.5
20260502001547 25 355 8.0 19.3 0.00 0.00 0.00 11 1008.5
20260502001047 25 5 4.8 24.1 0.00 0.00 0.00 11 1008.6
20260502000549 25 14 11.3 24.1 0.00 0.00 0.00 11 1008.6
20260502000105 25 34 12.9 20.9 0.00 0.00 0.00 11 1008.6
20260501235546 25 53 6.4 17.7 0.00 0.00 0.00 12 1008.5
20260501235049 25 53 3.2 20.9 0.00 0.00 0.00 11 1008.5
20260501234545 25 347 8.0 20.9 0.00 0.00 0.00 11 1008.6
20260501234044 25 37 8.0 20.9 0.00 0.00 0.00 11 1008.6
20260501233544 25 38 6.4 20.9 0.00 0.00 0.00 11 1008.6
20260501233044 25 9 8.0 20.9 0.00 0.00 0.00 11 1008.6
20260501232546 25 41 8.0 19.3 0.00 0.00 0.00 11 1008.6
20260501232048 25 46 9.7 20.9 0.00 0.00 0.00 11 1008.6
20260501231550 25 52 11.3 24.1 0.00 0.00 0.00 11 1008.6
20260501231043 25 23 14.5 24.1 0.00 0.00 0.00 11 1008.6
20260501230544 25 15 8.0 14.5 0.00 0.00 0.00 11 1008.6
20260501230042 26 355 3.2 16.1 0.00 0.00 0.00 11 1008.6
20260501225541 25 12 6.4 20.9 0.00 0.00 0.00 11 1008.8
20260501225040 25 36 8.0 30.6 0.00 0.00 0.00 11 1008.7
20260501224541 26 11 9.7 30.6 0.00 0.00 0.00 11 1008.9
20260501224036 26 10 3.2 19.3 0.00 0.00 0.00 12 1008.9
20260501223538 25 24 9.7 19.3 0.00 0.00 0.00 12 1008.9
20260501223036 25 28 3.2 20.9 0.00 0.00 0.00 12 1009.0
20260501222535 26 10 4.8 20.9 0.00 0.00 0.00 12 1009.0
20260501222034 25 325 3.2 24.1 0.00 0.00 0.00 13 1009.1
20260501221542 25 355 6.4 16.1 0.00 0.00 0.00 13 1009.1
20260501221036 25 28 6.4 22.5 0.00 0.00 0.00 13 1009.1
20260501220532 26 39 6.4 22.5 0.00 0.00 0.00 13 1009.3
20260501220041 25 11 8.0 22.5 0.00 0.00 0.00 13 1009.4
20260501215532 26 5 12.9 20.9 0.00 0.00 0.00 13 1009.4
20260501215031 26 37 12.9 24.1 0.00 0.00 0.00 13 1009.4
20260501214531 25 77 3.2 19.3 0.00 0.00 0.00 14 1009.4
20260501214032 25 11 8.0 16.1 0.00 0.00 0.00 13 1009.5
20260501213529 25 16 3.2 16.1 0.00 0.00 0.00 14 1009.6
20260501213035 25 360 1.6 12.9 0.00 0.00 0.00 14 1009.6
20260501212529 26 323 3.2 20.9 0.00 0.00 0.00 14 1009.7
20260501212029 26 348 8.0 20.9 0.00 0.00 0.00 14 1009.9
20260501211527 25 14 6.4 14.5 0.00 0.00 0.00 15 1009.8
20260501211026 25 44 3.2 20.9 0.00 0.00 0.00 15 1009.8
20260501210526 25 13 12.9 20.9 0.00 0.00 0.00 15 1009.9
20260501210026 25 46 8.0 22.5 0.00 0.00 0.00 15 1009.9
20260501205628 25 9 14.5 22.5 0.00 0.00 0.00 14 1010.1
20260501205025 25 351 8.0 20.9 0.00 0.00 0.00 15 1010.0
20260501204524 25 257 1.6 12.9 0.00 0.00 0.00 15 1010.0
20260501204022 25 69 1.6 9.7 0.00 0.00 0.00 15 1010.1
20260501203522 24 31 1.6 12.9 0.00 0.00 0.00 16 1010.2
20260501203023 24 78 1.6 9.7 0.00 0.00 0.00 16 1010.2
20260501202521 24 242 1.6 14.5 0.00 0.00 0.00 16 1010.3
20260501202022 24 100 1.6 14.5 0.00 0.00 0.00 15 1010.4
20260501201521 24 25 3.2 9.7 0.00 0.00 0.00 16 1010.4
20260501201021 23 314 1.6 8.0 0.00 0.00 0.00 17 1010.4
20260501200527 23 34 3.2 16.1 0.00 0.00 0.00 16 1010.5
20260501200020 23 61 6.4 16.1 0.00 0.00 0.00 17 1010.6
20260501195520 23 150 6.4 14.5 0.00 0.00 0.00 16 1010.6
20260501195021 24 173 3.2 11.3 0.00 0.00 0.00 16 1010.7
20260501194520 25 302 1.6 14.5 0.00 0.00 0.00 16 1010.7
20260501194018 24 98 4.8 16.1 0.00 0.00 0.00 16 1010.8
20260501193518 23 33 6.4 16.1 0.00 0.00 0.00 16 1010.8
20260501193032 24 92 6.4 14.5 0.00 0.00 0.00 16 1010.9
20260501192518 23 96 6.4 17.7 0.00 0.00 0.00 16 1011.0
20260501192017 23 63 6.4 17.7 0.00 0.00 0.00 17 1011.0
20260501191525 23 160 8.0 17.7 0.00 0.00 0.00 16 1011.1
20260501191017 23 136 6.4 17.7 0.00 0.00 0.00 16 1011.2
20260501190515 23 82 4.8 16.1 0.00 0.00 0.00 16 1011.3
20260501190042 23 118 8.0 16.1 0.00 0.00 0.00 16 1011.3
20260501185512 23 111 3.2 14.5 0.00 0.00 0.00 17 1011.3
20260501185012 23 81 3.2 12.9 0.00 0.00 0.00 17 1011.5
20260501184518 22 79 3.2 14.5 0.00 0.00 0.00 18 1011.5
20260501184014 22 75 4.8 14.5 0.00 0.00 0.00 18 1011.6
20260501183512 22 59 3.2 11.3 0.00 0.00 0.00 18 1011.6
20260501183019 22 57 3.2 11.3 0.00 0.00 0.00 18 1011.7
20260501182510 21 104 0.0 14.5 0.00 0.00 0.00 18 1011.7
20260501182010 22 91 4.8 14.5 0.00 0.00 0.00 18 1011.8
20260501181510 22 97 4.8 12.9 0.00 0.00 0.00 18 1011.8
20260501181010 22 57 4.8 8.0 0.00 0.00 0.00 18 1011.7
20260501180514 22 16 0.0 16.1 0.00 0.00 0.00 18 1011.8
20260501180010 22 98 6.4 16.1 0.00 0.00 0.00 18 1011.8
20260501175509 22 104 4.8 16.1 0.00 0.00 0.00 18 1011.7
20260501175009 22 51 3.2 14.5 0.00 0.00 0.00 18 1011.8
20260501174514 22 89 6.4 17.7 0.00 0.00 0.00 17 1011.8
20260501174008 22 75 11.3 17.7 0.00 0.00 0.00 18 1011.8
20260501173508 22 55 1.6 14.5 0.00 0.00 0.00 18 1011.8
20260501173008 22 55 6.4 14.5 0.00 0.00 0.00 17 1011.8
20260501172508 22 74 4.8 14.5 0.00 0.00 0.00 18 1011.8
20260501172007 22 5 6.4 14.5 0.00 0.00 0.00 17 1011.8
20260501171506 22 76 4.8 11.3 0.00 0.00 0.00 18 1011.8
20260501171005 22 24 4.8 14.5 0.00 0.00 0.00 18 1011.7
20260501170507 22 40 6.4 17.7 0.00 0.00 0.00 19 1011.8
20260501170005 22 77 6.4 17.7 0.00 0.00 0.00 18 1011.8
20260501165504 22 41 6.4 17.7 0.00 0.00 0.00 19 1011.8
20260501165004 21 96 3.2 9.7 0.00 0.00 0.00 19 1011.8
20260501164504 21 47 3.2 12.9 0.00 0.00 0.00 18 1011.8
20260501164002 21 107 6.4 12.9 0.00 0.00 0.00 18 1011.7
20260501163505 21 46 3.2 12.9 0.00 0.00 0.00 19 1011.7